Tracking 19489 objects as of 22-Jan-2019
HD Live streaming from Space Station
objects crossing your sky now

FENGYUN 1C DEB

Track FENGYUN 1C DEB now!
10-day predictions


NORAD ID: 30468
Int'l Code: 1999-025AGF
Perigee: 812.8 km
Apogee: 935.7 km
Inclination: 99.1 °
Period: 102.3 minutes
Semi major axis: 7245 km
RCS: 0.042 m2 (small)
Launch date: May 10, 1999
Source: People's Republic of China (PRC)
Launch site: Taiyaun Space Center, China (TSC)

Note: This is SATELLITE DEBRIS
aabbcc
Your satellite tracking list
Your tracking list is empty




NASA's NSSDC Master Catalog

Two Line Element Set (TLE):
1 30468U 99025AGF 19021.58138580 +.00000429 +00000-0 +27184-3 0  9997
2 30468 099.1123 061.5765 0084832 285.1386 229.2446 14.07736226613283
Source of the keplerian elements: AFSPC